Location: Heathcote
(40.9845°N, 73.7746°W)
Time: 03:43:13
(UTC+00:00)

YAOGAN 1 - Pass Details

Date: 29 October 2020
Orbit: 618 x 620 km, 97.9° (Epoch: 23 November)

Event Time Altitude Azimuth Distance (km) Brightness Sun altitude
Rises 23:40:57 0° 169° (S) 2,882 5.9 -20.7°
Reaches altitude 10° 23:43:07 10° 170° (S) 1,980 5.0 -21.1°
Maximum altitude 23:47:26 79° 257° (WSW) 637 2.6 -21.9°
Drops below altitude 10° 23:51:47 10° 345° (NNW) 1,995 5.3 -22.7°
Sets 23:53:59 0° 347° (NNW) 2,905 6.2 -23.2°
